Wind_Speed
4 3 2 2 1 1 1 2 3 4 4 4 3 4 4 5 7 8 10 11 11 11 12 12 12 11 14 13 7 4 3 3 4 5 6 6 5 5 7 8 7 6 5 5 5 5 4 4 3 3 2 2 2 1 0 0 1 2 2 2 4 6 7 7 7 8 8 8 8 8 7 6 6 5 4 3 3 2 2 2 3 3 3 3 3
4 4 3 2 1 2 2 2 3 4 4 4 4 4 5 6 7 8 9 9 10 11 12 12 13 12 13 14 10 6 3 3 5 5 6 6 4 3 5 7 7 6 6 6 6 6 5 4 3 3 3 3 3 3 3 2 1 1 3 3 2 3 5 6 7 8 8 8 8 8 7 7 6 5 5 4 3 3 2 2 3 4 4 4 4
5 4 4 3 2 3 3 3 4 4 4 4 5 5 6 6 6 8 9 10 11 11 12 13 13 13 13 13 10 7 4 2 3 5 6 6 4 2 4 6 7 6 6 7 7 7 5 5 4 4 4 5 4 4 4 3 3 2 3 3 3 3 4 5 6 7 7 8 8 8 8 8 7 6 6 5 4 4 4 4 4 4 4 5 5
5 5 4 4 3 3 4 4 4 4 4 5 5 6 6 6 7 8 10 12 12 11 12 14 13 13 14 14 10 7 4 2 2 3 5 5 4 3 3 4 5 5 6 7 8 8 6 6 6 6 6 5 5 5 5 5 5 5 4 4 4 4 4 4 5 6 7 7 8 8 8 8 7 7 7 7 6 6 5 5 5 5 5 5 5
5 5 4 4 4 4 4 4 4 4 5 5 6 6 7 7 8 10 11 12 13 12 13 14 15 13 13 15 11 6 3 2 1 1 3 3 3 2 2 3 3 4 6 7 9 9 8 9 9 9 8 6 6 5 6 6 6 6 7 6 5 5 5 5 6 6 6 7 7 7 7 7 7 7 7 7 7 7 7 6 6 7 6 5 5
5 5 5 5 5 5 5 4 4 5 5 6 7 8 9 10 11 12 13 13 13 13 13 15 16 14 13 14 12 8 4 2 1 1 1 2 2 1 1 1 3 4 5 7 9 10 11 11 11 10 9 7 7 6 7 7 7 6 7 7 8 7 6 7 7 7 6 6 7 7 7 7 7 7 7 7 7 8 8 7 8 8 7 7 6
6 5 6 6 6 6 5 4 4 5 6 7 8 9 11 12 13 14 14 14 14 13 13 15 15 14 13 12 11 9 6 3 1 1 1 2 2 1 1 1 3 3 3 5 8 10 11 11 11 10 10 8 8 8 8 8 7 7 6 7 8 8 8 8 8 8 7 7 7 7 7 7 8 8 8 8 8 9 9 8 8 8 8 8 8
6 6 6 7 6 5 5 5 5 5 6 7 9 10 11 12 13 14 14 14 15 14 13 14 14 13 12 11 10 9 7 4 2 1 2 2 2 1 1 2 3 4 3 4 6 8 9 11 11 11 11 10 9 10 9 8 8 8 7 7 8 9 10 10 10 10 9 9 9 9 9 8 8 8 9 9 9 10 10 10 9 9 9 9 8
7 7 7 7 6 5 5 5 6 7 8 9 10 11 11 12 12 12 13 14 14 15 14 13 12 10 10 10 9 9 7 4 3 2 3 2 2 2 4 4 4 4 5 5 5 6 7 7 8 8 9 9 9 11 11 10 10 9 8 9 9 10 10 11 11 12 12 12 12 12 11 10 9 9 9 9 10 10 10 10 10 10 10 10 10
8 8 8 7 6 6 6 7 8 8 9 9 10 10 11 12 12 12 13 13 13 14 13 12 10 8 9 10 9 9 8 5 2 3 3 2 2 3 5 6 6 6 5 5 5 5 5 5 4 4 5 5 6 7 10 11 11 10 10 10 11 11 11 11 11 12 13 13 14 14 14 13 12 12 11 11 11 11 11 11 11 11 11 11 12
9 9 8 7 6 7 8 8 9 9 9 9 9 10 11 11 11 11 11 11 11 11 11 11 10 8 8 9 9 9 10 6 2 2 3 2 3 3 5 7 8 8 8 7 6 6 6 6 5 4 4 4 5 5 7 9 11 11 11 11 12 12 12 11 11 12 13 14 15 16 17 16 15 15 15 14 14 13 12 13 13 13 13 13 13
10 9 9 7 7 8 8 10 10 10 9 8 8 9 9 9 9 8 8 9 9 9 9 9 9 9 8 8 8 8 10 8 5 4 2 1 2 3 4 7 8 9 9 8 8 7 7 7 7 6 6 6 6 6 6 7 8 10 11 12 12 13 13 12 13 13 14 14 15 15 17 19 18 17 17 17 17 16 16 16 15 15 15 15 14
10 10 9 7 7 8 9 10 10 10 9 7 7 7 6 6 5 6 7 8 8 8 8 8 9 9 8 7 6 7 8 8 8 5 2 1 1 2 3 6 8 8 8 8 9 9 9 8 8 8 7 7 7 8 7 6 7 8 9 10 11 12 12 13 13 14 15 16 16 16 17 18 19 18 18 19 19 18 18 18 18 18 17 17 17
11 10 9 8 7 8 9 10 10 9 6 4 4 4 3 4 5 6 7 8 8 8 9 9 9 9 8 7 6 6 6 7 7 6 4 3 2 1 2 5 7 6 6 7 8 9 9 9 9 9 9 9 9 9 9 8 8 8 9 9 10 11 11 11 11 12 14 15 16 16 17 18 18 18 19 20 20 20 20 20 19 20 20 19 19
11 10 9 8 8 8 8 9 8 5 2 0 1 3 4 6 7 7 8 8 9 10 11 11 11 10 9 8 7 7 7 7 7 6 6 6 5 3 3 4 3 2 3 5 8 9 9 9 9 9 10 10 10 10 11 10 10 9 10 10 11 11 12 11 10 10 12 13 14 15 16 18 18 17 18 19 19 20 20 21 20 19 20 20 20
12 11 10 8 8 7 7 7 5 2 2 3 4 5 6 7 8 9 10 10 11 12 13 13 13 12 11 10 10 9 9 9 8 6 6 7 6 6 6 3 1 2 2 3 6 8 8 8 8 9 10 10 10 10 11 12 12 12 11 11 12 12 13 13 13 13 13 13 13 15 16 17 17 17 18 18 19 19 20 21 21 20 20 21 21
14 12 10 8 8 7 7 5 4 4 5 6 6 7 7 8 9 10 10 11 12 12 13 13 13 13 11 11 10 10 10 10 8 7 6 6 7 8 8 7 5 5 4 4 4 5 6 7 7 9 9 9 10 10 10 11 12 12 13 13 13 13 14 14 14 14 14 13 13 14 16 16 17 18 18 19 19 20 20 21 21 20 21 21 22
14 12 10 8 7 7 6 6 6 6 6 6 7 7 7 7 8 9 9 10 11 11 11 12 12 12 11 11 10 9 10 10 9 8 8 7 7 8 9 9 8 7 6 5 4 4 5 6 7 8 8 8 9 9 9 9 10 11 12 13 13 14 14 14 14 14 14 14 15 16 16 17 18 18 19 19 20 21 21 21 21 21 22 22 21
15 12 10 8 7 7 7 8 8 8 7 7 7 7 6 6 7 8 9 8 9 9 9 9 10 10 10 10 10 9 10 10 9 9 10 9 9 8 8 8 8 8 7 6 5 5 5 7 9 11 10 9 9 9 9 9 10 10 11 11 12 13 14 14 14 14 15 15 16 16 17 18 18 18 19 20 20 21 22 22 22 22 22 22 22
14 12 10 9 8 9 9 10 9 9 8 7 7 6 6 6 7 7 7 7 7 9 9 10 10 10 10 10 10 10 10 10 10 10 11 11 12 11 10 9 9 8 8 7 6 4 4 7 10 13 13 13 11 10 10 10 10 10 10 10 11 12 13 14 15 15 15 16 16 17 17 18 18 18 19 19 20 21 22 22 22 23 23 23 23
13 12 10 10 10 11 11 11 10 9 9 8 7 6 5 5 6 6 5 5 7 9 11 12 13 13 12 11 10 10 11 11 10 10 11 12 13 13 13 12 10 9 8 8 8 6 4 7 10 12 12 12 12 10 9 9 10 10 10 10 11 11 12 13 14 15 16 16 17 17 17 18 18 19 19 20 20 21 22 22 22 23 23 23 24
13 12 12 11 12 13 12 12 11 10 9 8 6 5 5 5 5 6 6 7 8 10 12 13 14 15 14 13 11 10 10 10 10 10 10 11 12 13 14 13 13 11 9 7 7 7 6 6 7 8 8 9 10 10 9 10 10 10 10 11 12 12 12 13 13 15 16 16 17 17 18 18 19 19 20 21 21 22 23 23 23 23 23 23 24
14 14 13 13 14 14 13 12 12 11 10 9 7 5 4 5 4 6 8 9 9 11 12 14 15 15 15 15 13 12 11 10 10 10 10 11 12 12 13 13 13 12 11 8 6 5 5 4 3 4 6 7 8 9 10 11 12 12 12 13 13 14 14 14 15 16 17 17 18 18 18 19 19 20 20 20 21 22 23 24 24 25 24 24 25
16 15 15 14 15 14 14 13 12 12 11 10 8 6 5 4 3 3 6 8 9 11 12 13 15 15 15 15 15 13 12 12 11 10 10 10 11 11 11 12 12 11 10 9 6 4 5 4 3 3 4 6 7 8 10 12 13 13 14 15 15 15 15 15 16 17 18 18 18 19 19 19 19 20 20 20 20 21 22 24 25 25 26 26 26
16 15 15 15 16 15 14 13 13 13 12 11 9 8 6 5 3 0 4 7 9 10 12 14 15 16 16 16 15 14 12 12 11 11 11 11 11 11 11 11 12 11 10 8 8 7 8 8 7 6 6 6 7 8 10 12 14 14 14 15 16 17 16 16 16 17 17 18 18 18 18 18 19 19 19 19 19 20 21 22 23 24 25 25 26
17 16 16 17 18 17 16 15 15 14 13 12 10 9 7 6 4 2 3 5 8 10 11 13 14 15 16 16 16 14 13 12 11 11 10 10 11 11 11 11 10 10 10 9 9 9 9 10 10 9 9 9 9 9 10 11 12 13 13 14 16 17 17 17 16 16 17 17 18 18 18 18 18 18 18 18 18 19 19 21 22 22 23 24 24
19 18 19 20 20 19 18 17 16 15 14 12 11 10 8 6 5 4 3 4 6 8 9 11 12 14 15 15 15 15 14 13 11 10 10 9 10 10 10 10 10 9 9 9 10 10 10 11 12 11 11 11 12 12 11 11 12 13 13 13 15 16 16 17 16 17 17 17 18 19 19 19 18 18 18 17 17 18 19 20 20 21 22 22 23
21 21 22 22 22 21 20 18 17 15 14 13 12 11 9 8 7 6 5 6 7 8 10 11 12 13 14 14 13 13 13 13 12 11 10 9 8 8 8 8 8 8 9 11 11 11 12 13 13 13 13 14 14 15 14 13 13 14 14 14 14 15 15 16 16 16 17 18 18 19 19 19 19 19 19 19 19 19 20 20 20 21 21 21 22
23 23 23 23 23 22 20 19 18 16 15 13 12 12 10 9 8 8 8 9 10 11 11 12 13 15 15 14 13 12 12 12 12 11 10 9 6 6 7 7 7 8 10 11 12 12 13 14 14 15 16 16 16 17 17 16 15 15 15 15 15 16 16 17 17 17 18 19 19 19 19 19 20 20 20 20 20 20 21 21 21 21 22 22 22
25 25 25 24 23 22 20 19 18 17 15 14 12 11 10 9 9 10 10 11 12 13 13 14 15 16 17 15 14 13 12 11 11 11 10 9 7 6 8 8 7 9 10 11 12 12 14 14 15 17 18 18 18 19 19 18 17 17 16 17 17 17 18 19 19 19 20 21 21 21 20 20 20 20 20 20 20 21 21 21 21 22 22 23 23
26 26 25 25 23 22 20 19 18 17 16 14 12 11 10 9 10 11 12 12 13 14 15 16 17 17 17 16 15 14 13 12 11 10 10 10 9 8 9 10 9 10 11 11 11 11 13 15 17 19 20 20 19 19 20 20 20 19 18 18 18 19 20 20 20 21 22 23 23 23 22 21 21 21 21 20 20 21 21 21 22 22 23 23 24
27 27 26 25 23 21 20 19 18 17 15 14 12 10 10 10 10 11 12 13 14 15 16 17 18 18 18 18 17 15 14 13 12 11 10 10 10 10 11 12 13 12 12 12 11 11 13 16 18 20 21 21 20 20 21 21 22 21 21 20 20 20 21 21 21 22 23 24 24 25 24 24 23 22 22 22 22 22 22 22 22 23 24 24 25
29 28 27 25 24 22 21 20 18 16 15 13 12 11 10 10 11 12 13 14 15 16 17 18 18 18 18 18 18 16 15 15 14 13 11 10 10 10 11 13 15 15 14 14 13 12 13 16 18 20 21 21 21 21 21 22 22 23 23 22 21 21 22 23 23 24 24 24 25 25 25 25 25 24 24 24 24 23 23 24 24 25 26 27 27
29 29 27 26 25 23 22 20 18 17 15 13 12 12 11 12 12 13 14 15 16 17 18 18 18 18 18 19 18 18 17 17 16 15 14 13 12 12 12 13 15 17 17 16 15 14 14 15 18 20 21 22 22 22 22 22 23 23 24 24 23 23 24 24 25 26 26 26 26 26 26 26 25 25 26 26 27 27 27 27 28 28 29 30 30
30 29 28 26 26 24 23 21 19 17 15 14 14 14 13 13 13 13 14 16 17 18 19 19 19 19 19 20 20 19 19 19 18 18 17 17 16 15 14 14 16 18 19 18 17 17 17 17 18 19 20 22 22 23 23 23 23 24 25 25 24 24 24 26 27 28 28 28 28 28 28 28 28 27 27 28 28 28 29 30 31 32 33 33 33
31 30 28 27 26 25 23 21 19 17 16 16 15 14 13 13 14 15 16 17 18 19 19 20 20 20 20 20 21 21 21 20 19 20 20 20 19 19 16 16 17 19 21 20 19 20 21 19 19 19 20 22 23 23 24 24 24 25 25 25 25 24 25 27 29 30 31 31 31 31 29 29 29 30 30 30 30 30 31 32 33 34 34 35 34
31 30 29 28 26 24 22 20 19 17 16 16 15 14 14 15 16 17 18 18 19 20 21 21 22 21 20 21 21 21 22 21 20 21 22 22 22 21 19 19 19 19 21 22 21 23 24 22 21 20 21 21 22 23 24 25 25 25 25 25 25 26 27 29 31 33 33 32 32 33 32 31 30 30 31 32 32 32 32 33 34 34 34 34 34
31 30 29 27 25 23 21 20 19 18 17 16 15 15 15 16 17 17 18 19 20 21 22 23 24 23 22 21 21 21 21 21 20 22 24 24 23 22 22 22 20 20 22 23 24 25 25 24 23 23 23 22 23 24 25 25 25 25 26 27 28 29 30 32 32 32 33 33 32 33 34 33 32 32 32 33 33 33 33 34 35 34 34 35 35
31 30 28 27 25 23 22 20 19 18 18 17 16 16 16 16 16 17 18 19 21 22 24 25 26 25 23 21 20 20 20 20 20 22 23 24 23 23 23 23 22 21 23 24 25 27 27 26 26 26 26 26 25 25 25 25 26 27 29 30 30 30 32 33 32 32 32 33 34 35 36 36 34 33 33 34 34 34 34 35 34 34 34 35 36
31 30 28 26 25 24 23 22 21 20 19 18 17 17 17 16 16 17 18 19 20 22 25 27 28 27 23 21 21 21 21 21 20 21 22 23 23 22 23 24 23 22 24 25 27 29 29 28 29 29 28 27 26 25 24 24 25 27 29 32 31 30 31 33 33 34 35 35 35 35 36 35 34 34 35 34 33 34 34 35 34 34 34 35 36
31 30 28 27 26 25 24 23 22 22 20 18 17 17 17 16 17 18 17 18 20 23 26 27 27 26 22 20 22 23 23 22 21 21 22 23 23 22 23 24 25 24 25 26 29 31 31 31 32 32 30 27 26 24 23 24 26 27 29 31 31 31 32 34 35 35 35 34 35 34 34 34 34 35 36 36 33 33 34 34 33 33 33 34 35
31 30 29 28 28 27 26 25 24 23 21 19 18 17 18 18 19 19 18 18 21 24 26 27 25 24 22 19 21 24 24 22 21 22 24 24 22 22 23 25 26 26 26 27 31 33 33 33 34 34 32 28 26 23 23 24 27 28 29 30 32 33 35 36 36 35 33 33 36 35 33 33 35 36 36 35 34 33 34 33 32 32 33 34 34
32 31 30 30 30 29 28 26 25 24 21 19 19 19 19 20 21 20 19 20 23 25 26 26 24 23 24 22 21 23 23 22 21 22 23 24 22 21 23 26 28 28 27 29 32 34 35 35 35 34 33 30 26 24 24 25 27 28 29 31 33 35 36 36 36 36 34 35 37 36 32 31 34 36 34 33 33 33 33 32 32 32 33 33 34
32 32 32 32 32 30 29 27 26 24 22 20 21 21 21 22 22 21 20 21 23 24 25 25 23 23 26 25 22 22 23 22 22 23 24 23 22 22 24 27 29 29 28 30 33 35 35 35 35 35 33 30 27 26 26 27 28 28 30 32 34 36 36 35 36 36 36 37 38 38 35 32 33 35 34 32 33 33 33 33 32 32 33 33 34
34 34 34 34 33 31 30 29 26 24 23 23 23 23 24 24 24 23 22 22 23 23 25 26 24 24 26 25 23 23 23 22 22 24 24 22 20 21 24 26 28 28 29 31 33 34 34 34 35 35 32 30 29 27 27 28 29 29 30 32 33 35 35 36 36 37 36 37 39 41 39 34 33 35 34 33 33 33 32 32 31 32 33 33 33
35 35 36 36 35 33 31 29 27 26 26 25 25 25 26 26 26 25 23 22 23 24 26 26 25 26 25 23 22 22 22 22 24 24 22 20 19 21 23 25 27 29 30 31 32 31 32 34 35 34 31 31 30 28 27 28 29 30 31 32 33 34 36 37 37 37 37 38 40 42 41 37 34 34 33 31 31 31 29 29 29 29 30 30 31
36 37 38 37 36 34 32 30 29 29 28 27 27 27 27 27 28 27 24 23 24 25 26 25 25 26 25 22 22 22 22 24 25 24 22 20 20 22 23 24 26 28 30 30 29 29 31 33 33 32 31 30 29 27 26 28 30 31 32 33 33 35 37 38 38 38 38 38 39 41 41 38 35 34 31 29 29 29 27 26 26 27 28 28 28
38 39 39 39 37 35 32 31 31 31 29 28 29 29 28 29 30 28 25 25 25 26 27 26 26 26 25 25 24 22 23 26 26 25 23 22 21 22 23 23 25 27 28 28 28 28 30 30 30 29 28 27 26 26 27 29 30 32 32 33 34 36 38 39 40 40 40 39 38 39 40 38 36 34 30 28 28 28 26 25 26 26 26 27 28
41 41 41 40 38 36 34 34 34 32 31 31 31 30 30 31 32 29 26 26 26 27 27 27 27 25 24 25 24 21 22 25 26 25 25 23 21 22 23 23 25 26 26 26 26 26 27 27 26 26 25 25 26 27 28 29 30 31 33 34 36 38 40 41 42 42 41 39 37 37 38 37 34 32 30 28 28 28 26 25 26 26 26 27 29
42 42 41 40 38 37 37 37 36 34 33 33 32 31 31 32 32 29 27 27 27 27 28 29 28 25 22 22 22 21 24 25 26 26 26 23 22 23 23 24 25 24 23 23 23 24 24 23 24 24 25 26 27 28 29 30 31 33 34 36 38 39 41 42 42 42 41 38 35 34 35 34 32 31 31 31 29 27 25 25 25 25 26 27 29
43 43 41 40 40 40 39 38 36 35 35 34 32 32 32 33 33 30 28 28 27 28 30 30 29 24 21 20 20 22 26 26 26 26 25 23 24 25 23 23 23 21 20 21 22 22 22 22 24 25 26 27 28 29 30 31 33 34 36 38 39 39 39 39 39 38 37 34 31 31 32 32 30 29 31 33 32 28 24 25 25 25 25 26 28
Wind_Direction
204 216 231 225 213 235 246 283 293 297 303 312 327 341 347 348 345 344 347 345 344 350 353 351 350 354 357 354 351 348 349 349 342 326 312 304 286 254 236 228 225 224 216 216 228 235 235 236 238 238 247 265 272 267 285 352 157 175 178 176 191 199 198 197 200 200 203 207 207 210 216 218 221 221 216 213 219 233 237 234 237 249 256 255 262
204 214 231 226 221 256 268 289 294 299 306 313 324 329 331 338 341 339 341 344 347 349 349 346 344 348 350 349 344 339 358 7 354 342 328 327 320 263 231 222 219 213 202 205 221 229 232 238 245 250 244 237 245 255 255 255 239 189 179 183 198 210 211 208 209 209 208 208 206 212 217 220 227 230 231 234 237 246 259 257 247 251 265 276 278
207 211 216 215 229 256 271 279 283 298 308 309 315 319 322 330 337 338 342 347 351 350 346 342 340 341 341 343 344 340 357 16 357 348 333 333 335 289 233 220 218 213 204 203 211 216 221 231 234 243 244 233 233 246 249 242 236 222 188 183 188 200 213 213 215 219 220 216 212 217 221 221 228 238 247 256 260 261 268 268 262 257 263 278 287
207 210 211 214 224 241 257 269 279 298 306 305 307 311 317 326 334 338 342 346 349 348 343 338 336 339 336 336 344 346 349 355 350 346 331 332 334 300 251 229 226 222 219 215 208 203 211 230 231 231 236 231 230 244 250 244 237 238 232 211 197 192 199 206 212 218 223 222 217 219 226 229 234 242 252 261 265 267 270 269 266 262 262 269 282
205 212 218 222 226 234 246 256 272 290 299 299 302 308 316 324 330 335 338 341 345 344 338 332 331 336 333 330 337 346 340 323 318 329 323 328 333 307 267 248 236 224 221 219 210 198 204 226 229 227 231 230 232 242 248 247 243 243 244 238 229 210 200 205 211 212 216 220 217 217 225 232 240 246 251 257 260 261 264 266 265 265 266 266 271
213 220 226 231 235 238 238 244 268 288 298 302 306 313 318 324 329 333 334 335 341 339 332 328 327 330 329 324 327 335 331 317 301 313 325 308 309 325 323 239 221 218 215 212 210 203 206 223 229 227 228 232 242 247 244 245 244 244 245 239 236 233 222 216 216 213 213 220 220 219 222 227 234 241 245 250 253 255 256 259 261 263 268 269 268
221 224 232 237 240 242 243 255 280 294 302 306 313 319 321 324 327 329 329 329 333 333 328 326 325 327 324 318 319 323 319 312 307 317 300 261 259 309 16 157 187 193 199 201 207 208 212 224 232 235 234 234 243 247 243 243 242 242 245 240 238 240 240 234 232 228 225 226 226 225 226 228 231 236 239 243 246 250 253 255 258 261 266 268 269
225 228 237 244 247 252 260 270 284 293 301 309 316 319 321 323 325 325 323 323 326 327 327 325 325 325 318 311 313 313 308 305 301 274 263 247 215 224 236 215 189 174 176 191 204 212 218 228 236 242 245 243 242 243 245 248 249 245 242 243 243 244 246 244 244 245 242 238 234 232 231 231 232 236 240 244 246 248 250 252 254 256 260 261 263
226 229 238 249 258 266 273 280 289 296 304 313 317 318 319 321 321 320 319 320 321 324 327 326 326 324 311 307 310 309 303 292 283 268 256 232 179 203 220 224 219 197 187 189 198 208 211 222 236 240 243 244 242 243 245 247 253 253 248 247 247 248 250 250 250 252 251 248 243 240 238 235 234 235 241 249 252 252 252 253 253 255 259 261 260
227 233 241 250 262 273 280 287 294 301 309 315 318 317 318 318 316 313 315 318 322 327 329 328 328 321 309 309 311 308 300 286 281 281 263 219 182 202 215 224 230 226 215 202 197 201 201 205 222 231 235 244 244 241 239 236 239 244 246 249 250 249 249 251 254 256 257 255 252 248 244 243 241 240 243 248 250 251 253 254 254 255 255 256 257
230 234 239 247 261 274 282 288 295 303 309 315 317 315 316 317 314 313 318 324 332 338 336 333 331 327 322 319 316 309 301 301 335 320 285 215 186 205 223 233 239 239 234 225 214 211 211 210 209 215 231 253 257 249 239 230 230 235 238 245 250 253 254 253 254 255 257 258 257 255 252 251 249 246 245 246 247 250 254 254 255 259 259 258 257
230 233 238 249 263 276 285 292 299 305 307 310 314 317 320 322 321 327 335 343 350 351 346 341 338 340 339 331 321 311 308 321 353 1 332 241 202 218 242 252 253 248 238 230 229 227 228 228 222 224 234 249 258 259 252 233 224 226 234 242 247 252 256 255 255 255 256 259 261 261 259 255 254 253 252 252 252 251 254 256 258 263 267 269 270
230 236 244 257 270 282 290 296 302 302 300 303 313 324 331 336 347 358 2 4 5 359 355 354 352 352 350 341 331 318 319 336 356 8 1 309 270 228 245 256 252 251 247 237 233 232 234 239 239 239 243 250 257 260 259 246 227 220 224 234 240 246 251 253 257 259 259 260 261 262 261 258 255 254 255 256 257 255 256 260 262 264 265 267 271
233 238 247 258 271 283 290 296 298 293 291 297 318 342 5 23 29 24 20 18 15 11 10 12 8 4 2 355 345 337 340 351 359 354 340 348 356 326 273 257 243 243 258 258 252 243 237 242 249 253 254 256 261 263 263 258 248 236 228 228 232 239 247 250 254 256 258 260 261 261 262 261 260 258 258 259 260 261 262 264 265 266 267 266 265
239 242 248 258 270 281 287 291 291 284 272 263 61 66 64 59 52 44 40 35 31 30 28 27 23 18 12 4 360 359 358 1 2 348 336 347 356 340 297 261 236 238 271 277 273 263 251 250 256 260 260 260 263 267 268 266 260 253 244 239 237 238 243 246 249 251 255 258 261 262 262 264 266 265 262 261 261 263 264 263 263 264 265 265 263
242 244 249 260 269 276 280 279 271 230 158 132 108 91 81 74 68 61 54 49 45 42 38 36 32 27 21 14 14 10 5 3 1 352 344 342 340 332 316 300 11 44 353 312 289 278 271 266 265 266 267 267 267 268 270 271 268 261 254 250 247 245 245 245 247 250 253 255 256 259 261 264 268 267 265 264 263 263 264 264 263 263 263 263 262
241 244 249 258 266 270 265 249 206 167 146 126 110 102 94 84 75 67 59 54 49 45 42 39 34 30 26 22 20 11 6 6 358 352 348 340 334 330 330 339 4 25 25 356 322 306 290 280 274 272 274 276 276 273 272 272 270 267 262 258 255 253 252 251 251 252 254 256 255 256 258 261 265 267 268 268 267 266 265 264 265 265 264 264 264
241 242 246 253 260 254 230 197 172 157 145 129 119 114 103 87 76 68 59 53 50 46 42 37 34 30 25 22 19 11 7 6 358 350 345 341 342 338 337 345 356 8 15 4 354 349 327 309 299 292 289 284 280 279 278 274 271 270 269 268 266 264 262 260 259 258 258 258 258 258 258 259 261 264 266 266 266 266 266 267 268 268 266 266 266
242 241 244 249 244 222 195 174 166 158 150 138 129 124 109 88 75 67 59 52 47 44 38 33 31 27 21 18 13 8 7 5 359 351 345 342 345 343 340 348 354 357 1 357 356 358 344 327 315 311 308 299 289 286 286 280 274 270 267 268 270 272 272 270 267 265 263 261 261 261 261 261 261 263 264 265 266 266 267 267 268 268 268 268 268
239 239 239 238 221 199 183 171 167 164 156 147 138 130 109 86 73 67 63 52 40 39 37 32 30 24 17 11 6 2 2 5 2 355 350 345 344 344 342 347 350 348 348 344 340 346 335 314 306 307 307 304 299 295 290 284 279 275 270 267 265 268 271 273 272 270 269 267 266 265 265 265 265 264 264 264 266 266 266 265 265 265 266 267 267
233 235 233 226 209 194 183 174 170 168 160 153 146 129 106 89 78 71 66 56 44 42 41 37 33 30 25 18 10 5 3 5 5 359 354 349 348 348 344 344 342 339 340 335 329 330 321 304 299 301 302 301 302 301 295 287 284 282 282 281 276 273 272 272 274 274 273 272 270 270 269 269 269 269 267 266 265 265 265 264 264 264 263 264 264
229 232 230 219 205 194 185 178 174 170 164 159 152 135 116 106 90 72 64 61 52 44 41 38 35 33 32 29 22 15 11 11 10 5 359 354 353 351 347 344 339 337 338 333 326 323 323 314 302 299 295 292 297 302 303 297 293 291 291 291 288 285 284 282 282 281 279 278 276 275 273 272 272 271 271 271 270 268 267 266 265 265 264 264 263
227 230 226 213 202 194 189 183 177 171 168 166 162 155 141 127 104 72 62 60 51 43 39 35 36 36 35 34 32 25 19 16 13 10 8 2 356 351 345 341 338 337 336 335 332 320 320 322 303 291 284 282 285 292 297 296 294 293 291 289 287 286 286 285 285 283 281 280 278 277 276 274 273 272 271 271 272 271 270 269 268 267 266 266 266
225 225 219 208 199 195 193 186 178 175 175 173 173 175 169 154 135 73 50 46 41 38 35 31 30 32 32 33 33 30 25 20 14 9 6 3 357 350 342 335 334 335 334 332 329 315 311 313 298 282 277 278 280 282 285 285 283 283 283 281 281 280 280 280 280 278 277 277 276 276 275 275 274 274 273 272 272 272 272 271 269 268 267 267 267
221 219 215 207 198 197 197 190 184 183 182 182 184 190 192 184 181 65 24 31 35 36 33 29 26 25 25 26 27 28 25 22 15 8 1 355 350 343 336 331 328 328 330 328 322 316 314 312 307 302 295 287 284 282 279 276 274 273 273 272 273 274 276 277 277 276 276 277 278 277 276 275 274 273 273 273 274 275 275 274 272 270 267 266 266
214 213 212 204 198 199 199 194 191 188 188 191 194 201 205 204 215 259 349 16 29 30 26 23 20 18 17 17 18 17 16 16 14 9 360 350 343 336 330 327 324 321 323 325 325 320 312 307 307 307 305 300 294 287 278 272 270 268 266 265 267 269 272 275 276 276 276 277 278 279 278 277 275 273 272 272 272 273 273 273 273 272 271 269 267
207 208 207 202 199 200 200 196 194 191 192 198 204 211 215 219 234 258 299 342 0 5 5 7 9 9 7 8 9 6 4 5 7 9 3 351 340 333 325 320 317 315 317 323 326 321 309 304 305 306 306 304 298 291 280 269 266 266 266 267 269 271 272 273 275 277 278 278 279 279 278 278 277 276 274 274 273 272 272 271 271 272 272 272 271
204 204 202 200 200 201 200 198 198 198 198 203 210 217 223 231 243 262 285 307 323 331 339 345 350 354 356 357 358 356 355 355 356 1 5 360 341 324 317 310 306 308 313 319 321 315 306 305 307 306 307 306 300 294 286 276 270 270 272 273 275 276 275 276 278 280 282 282 282 281 280 279 278 278 278 277 276 275 274 274 273 272 272 272 272
202 202 201 201 202 202 200 199 201 204 206 208 214 222 230 240 252 268 281 293 305 314 323 330 336 341 344 346 346 343 343 347 348 349 353 358 344 314 302 294 294 303 311 316 316 311 306 307 306 303 303 303 301 297 291 284 278 277 278 281 282 282 282 283 284 286 288 289 288 286 282 280 278 278 278 279 278 277 276 275 275 274 273 272 271
200 200 201 201 202 201 200 200 204 208 212 214 217 224 234 246 259 272 282 291 299 306 315 324 329 332 333 335 337 333 331 335 339 340 341 344 337 310 294 288 289 299 308 314 314 307 304 303 300 298 299 299 298 296 293 287 282 281 285 289 293 295 294 293 291 290 292 295 295 292 288 283 280 278 277 277 277 276 276 276 276 276 275 274 272
199 200 200 200 201 201 199 202 206 210 215 219 221 228 239 252 265 275 282 289 296 302 310 318 323 325 325 325 327 327 324 322 325 329 330 331 327 314 300 290 285 290 300 309 313 308 302 300 299 298 297 295 294 294 291 287 284 285 289 293 296 300 302 301 299 297 297 298 298 296 292 287 282 279 278 277 276 275 275 276 277 278 277 276 274
199 200 200 199 199 199 201 204 208 212 218 224 230 238 247 258 269 276 282 289 296 301 306 312 317 319 319 319 319 319 316 313 312 311 314 316 316 311 302 291 284 285 291 300 307 310 305 301 299 298 295 293 292 291 287 284 284 286 288 290 294 299 302 304 304 302 300 299 298 296 294 291 287 283 280 277 276 275 276 277 278 279 279 278 276
199 200 199 198 198 200 203 207 210 214 221 229 237 244 251 259 268 275 283 290 296 299 303 309 313 314 314 313 314 313 310 307 302 299 300 301 297 295 291 287 284 282 284 289 296 304 309 305 298 294 293 294 292 289 284 282 282 284 287 289 294 300 304 306 307 306 303 300 298 295 293 292 290 289 288 286 284 283 282 282 282 282 282 281 280
198 200 198 197 198 201 206 210 213 217 222 229 237 245 252 259 269 277 285 291 295 298 303 308 309 308 308 308 307 305 303 301 298 293 292 292 288 282 277 279 281 279 281 285 288 297 307 307 299 294 293 294 292 287 283 281 281 283 286 290 296 301 304 307 309 308 304 301 299 297 294 292 291 290 290 290 290 290 289 289 288 287 286 284 283
199 199 198 198 199 203 207 211 215 218 222 229 237 246 254 262 271 278 284 290 294 299 304 307 304 302 304 303 300 298 297 295 293 290 289 290 288 283 276 275 276 276 277 280 284 292 302 305 302 297 292 291 291 288 285 283 281 282 285 289 294 298 302 305 307 306 302 299 297 295 293 292 291 290 289 288 288 288 289 289 289 289 288 287 285
200 199 199 200 202 204 208 211 215 218 224 231 239 247 256 265 272 277 283 289 295 301 304 303 300 299 300 298 296 295 293 290 288 287 288 289 288 286 281 276 275 272 272 274 279 287 295 301 304 300 293 289 290 289 284 280 280 281 284 287 290 293 298 302 305 305 302 300 297 294 291 289 288 289 289 288 287 287 287 288 288 288 288 287 287
201 201 201 202 204 206 208 211 215 220 226 234 240 248 256 265 272 278 285 291 297 302 302 301 298 296 295 294 293 292 289 287 285 285 286 286 286 286 283 281 279 273 271 274 276 282 290 296 300 301 296 289 286 285 281 278 279 282 285 287 287 289 292 296 301 301 300 298 296 294 291 289 287 286 286 285 286 287 288 288 288 287 287 286 285
204 204 203 204 205 206 209 213 217 222 228 234 241 249 259 267 275 282 289 295 299 301 300 298 294 293 292 290 288 287 286 285 283 282 284 284 283 282 282 286 285 278 275 276 275 279 286 291 295 300 300 291 281 277 277 279 281 284 286 286 286 288 291 293 296 296 294 292 290 290 291 291 289 286 284 282 283 285 285 286 286 286 285 284 283
208 208 207 207 207 207 211 215 219 224 230 236 243 253 262 270 278 286 291 295 297 298 297 294 292 294 294 289 286 285 285 286 283 280 280 279 278 278 279 284 285 280 277 276 275 278 282 286 292 299 301 295 284 277 276 280 284 287 288 286 287 290 292 293 293 292 290 288 288 289 289 289 288 287 284 282 282 283 283 283 283 283 282 281 280
213 211 209 209 210 212 214 217 221 227 232 238 246 255 264 271 278 283 287 290 292 292 291 290 293 296 295 289 287 285 283 284 284 281 279 276 275 276 276 279 281 278 276 274 273 275 278 283 290 296 298 296 287 278 275 279 283 285 287 288 290 292 293 294 294 292 289 289 290 290 291 290 288 286 286 285 285 284 284 283 283 282 280 279 278
215 215 213 212 213 215 217 219 223 228 235 242 249 257 264 270 275 278 279 280 282 284 285 289 294 297 294 288 285 283 280 281 283 283 282 278 275 275 274 275 277 275 275 274 271 272 275 281 288 293 296 294 286 277 273 276 280 282 284 287 291 293 295 296 295 293 293 294 294 295 295 294 290 287 287 288 288 286 285 285 284 283 281 280 279
217 216 214 213 216 217 219 222 225 230 237 244 251 258 263 266 269 270 269 269 274 279 283 288 294 295 293 289 283 280 278 278 282 286 283 278 275 273 272 273 274 273 273 271 269 270 273 279 286 291 294 293 286 278 272 273 278 282 284 288 292 296 298 298 296 297 300 299 297 297 298 297 294 291 290 291 290 288 287 286 285 283 281 280 279
219 218 215 215 217 219 221 224 228 234 240 246 252 256 258 262 264 261 258 262 272 280 284 289 293 295 293 290 284 282 279 277 280 283 280 275 270 269 269 269 269 269 269 268 267 268 271 277 283 288 292 291 284 276 273 272 275 280 286 291 296 299 299 299 300 303 304 302 299 300 300 299 295 293 292 291 290 288 287 286 284 281 279 277 275
221 220 218 218 219 221 223 226 229 236 242 246 251 253 254 258 258 251 251 262 274 282 288 291 292 292 290 287 282 281 278 274 273 274 273 269 264 261 263 264 265 265 264 265 265 267 271 277 282 288 290 287 279 275 274 274 276 280 287 293 298 300 300 301 302 305 306 304 303 302 302 300 296 293 292 291 288 287 285 284 283 281 279 277 275
223 222 221 221 222 223 225 227 231 238 243 245 248 249 251 254 251 244 249 265 279 287 294 296 293 292 289 281 274 275 274 268 266 268 271 271 268 266 268 268 267 265 262 262 265 268 273 278 283 287 286 282 278 277 276 276 278 282 287 293 298 299 300 301 302 304 306 306 305 303 302 301 296 292 292 290 287 285 284 283 282 281 280 279 278
223 223 223 224 225 226 228 229 233 238 241 244 247 248 250 252 247 243 252 271 284 293 301 301 297 297 292 279 270 272 271 267 265 266 268 273 275 276 275 274 271 267 264 265 267 270 274 278 282 285 283 280 279 279 277 279 283 288 292 295 298 299 300 301 303 304 306 305 303 301 300 298 295 292 291 289 287 285 283 282 281 279 279 279 279
225 225 226 227 228 229 230 232 235 238 240 244 246 248 252 253 247 245 257 275 285 294 302 302 297 294 290 283 277 273 266 265 266 266 266 272 278 281 280 276 272 268 265 266 268 270 273 277 281 284 283 282 282 282 283 286 289 292 294 296 299 300 300 301 301 302 302 302 300 299 297 297 295 294 292 291 288 287 287 286 283 281 281 281 281
226 226 228 229 230 232 233 234 237 239 241 245 247 249 253 254 247 247 261 276 284 292 299 300 294 287 282 279 278 271 263 265 268 267 266 271 279 286 285 281 277 271 266 266 268 271 273 277 281 283 283 284 284 285 287 289 289 291 294 296 299 299 298 298 298 298 298 298 297 297 296 296 296 295 294 292 290 289 289 287 284 283 284 284 283
228 228 229 231 232 234 235 237 240 241 242 245 247 250 254 252 246 248 263 275 282 289 296 298 294 286 279 271 267 266 266 266 267 266 266 268 278 288 287 283 279 273 267 268 270 271 273 276 279 281 283 284 285 286 287 288 289 292 295 297 298 297 297 297 297 298 298 298 298 297 296 296 297 297 296 294 290 290 290 289 287 288 289 289 287
229 230 232 233 235 237 238 239 240 242 243 245 246 250 253 248 243 250 264 274 281 289 295 298 295 288 277 265 261 267 270 268 267 266 262 264 277 287 285 280 277 272 268 268 268 268 271 276 280 282 284 284 285 286 287 289 292 295 297 298 298 297 298 299 300 301 301 301 301 299 296 297 298 299 298 295 292 292 293 292 292 293 293 291 289
231 232 233 235 236 236 237 239 240 241 243 244 246 250 251 244 242 252 264 272 282 289 293 294 292 286 276 265 261 265 267 266 264 262 258 264 278 285 283 278 274 267 262 261 263 268 275 280 282 282 283 284 286 287 289 292 295 297 298 299 300 300 301 302 302 303 303 304 303 299 297 298 299 299 298 296 294 294 295 295 295 295 292 290 289
Height
3216 3217 3217 3217 3217 3217 3217 3217 3217 3216 3216 3216 3216 3215 3215 3215 3215 3214 3214 3213 3212 3212 3211 3210 3209 3208 3207 3207 3206 3205 3204 3204 3203 3203 3203 3203 3203 3204 3204 3205 3205 3206 3207 3208 3208 3208 3209 3210 3210 3210 3211 3211 3211 3211 3211 3211 3211 3211 3211 3212 3212 3212 3213 3213 3213 3214 3214 3214 3215 3216 3216 3217 3218 3218 3218 3218 3218 3219 3219 3220 3220 3220 3220 3221 3221
3217 3217 3217 3216 3216 3216 3216 3216 3217 3217 3217 3216 3216 3216 3215 3215 3215 3214 3214 3214 3213 3212 3211 3210 3209 3208 3207 3207 3206 3205 3205 3204 3203 3203 3202 3203 3203 3203 3203 3204 3205 3205 3206 3207 3208 3208 3209 3209 3210 3210 3211 3210 3211 3211 3211 3212 3212 3212 3212 3212 3212 3212 3213 3213 3213 3214 3214 3214 3215 3215 3216 3217 3217 3218 3218 3218 3218 3219 3219 3219 3220 3220 3220 3220 3220
3216 3217 3216 3216 3216 3216 3216 3216 3216 3217 3216 3216 3216 3216 3216 3215 3215 3214 3214 3213 3213 3212 3211 3210 3208 3207 3206 3206 3206 3206 3205 3204 3203 3203 3202 3202 3202 3202 3203 3203 3204 3205 3206 3207 3208 3208 3209 3209 3209 3210 3210 3210 3210 3211 3211 3212 3212 3212 3212 3212 3212 3212 3213 3213 3213 3214 3214 3214 3215 3215 3216 3216 3217 3217 3218 3218 3218 3218 3218 3219 3219 3219 3220 3220 3220
3216 3216 3216 3216 3216 3216 3216 3216 3216 3216 3216 3216 3216 3216 3215 3215 3215 3214 3213 3212 3212 3211 3210 3209 3208 3207 3206 3205 3206 3206 3205 3204 3203 3203 3202 3203 3203 3203 3203 3203 3204 3205 3205 3206 3207 3208 3209 3209 3209 3209 3210 3210 3210 3211 3211 3211 3212 3212 3212 3212 3212 3212 3212 3213 3213 3213 3214 3215 3215 3215 3215 3216 3216 3217 3218 3218 3218 3218 3218 3218 3218 3219 3219 3219 3219
3215 3215 3215 3215 3215 3215 3215 3216 3215 3215 3215 3215 3215 3215 3215 3215 3214 3213 3212 3211 3211 3210 3210 3209 3207 3207 3206 3204 3205 3206 3205 3204 3203 3203 3203 3203 3203 3203 3203 3203 3204 3204 3205 3206 3206 3207 3208 3208 3208 3208 3209 3210 3210 3211 3211 3211 3211 3212 3212 3212 3212 3212 3212 3212 3213 3213 3214 3214 3215 3215 3215 3215 3216 3216 3217 3217 3218 3218 3218 3218 3218 3218 3218 3218 3218
3214 3215 3215 3215 3215 3215 3215 3215 3215 3215 3215 3215 3215 3214 3214 3214 3213 3212 3211 3211 3211 3210 3209 3208 3207 3207 3206 3205 3204 3204 3204 3204 3203 3203 3203 3203 3203 3203 3203 3204 3204 3204 3205 3205 3206 3207 3207 3207 3207 3208 3209 3210 3210 3210 3210 3211 3211 3211 3212 3212 3213 3213 3213 3213 3213 3213 3213 3214 3214 3214 3215 3215 3215 3215 3216 3216 3217 3217 3217 3217 3217 3217 3217 3217 3217
3214 3214 3214 3214 3214 3214 3215 3215 3215 3215 3215 3214 3214 3214 3214 3213 3212 3211 3210 3210 3210 3210 3210 3209 3208 3207 3206 3205 3203 3203 3203 3203 3203 3202 3202 3203 3203 3204 3204 3204 3204 3204 3204 3205 3205 3206 3207 3207 3207 3208 3208 3209 3210 3210 3210 3210 3210 3210 3211 3211 3212 3212 3213 3213 3213 3212 3213 3213 3214 3214 3214 3214 3214 3215 3215 3215 3216 3216 3216 3216 3216 3216 3216 3217 3217
3213 3213 3213 3213 3213 3214 3214 3214 3214 3214 3214 3214 3213 3213 3213 3212 3212 3211 3210 3210 3209 3209 3209 3208 3208 3207 3206 3205 3203 3203 3202 3202 3202 3202 3202 3202 3203 3204 3204 3204 3204 3204 3204 3205 3205 3206 3206 3206 3206 3207 3207 3208 3209 3209 3209 3210 3210 3210 3210 3210 3211 3212 3212 3212 3212 3212 3212 3213 3213 3213 3213 3213 3214 3214 3214 3214 3214 3215 3215 3214 3214 3214 3215 3215 3216
3212 3212 3212 3213 3213 3213 3213 3214 3214 3213 3213 3213 3213 3212 3212 3211 3211 3210 3210 3209 3208 3208 3208 3207 3207 3206 3205 3204 3203 3202 3202 3201 3201 3202 3202 3203 3203 3204 3204 3204 3204 3204 3204 3204 3204 3205 3206 3206 3206 3206 3206 3207 3208 3208 3208 3209 3210 3209 3209 3210 3210 3211 3211 3212 3212 3212 3212 3212 3213 3213 3213 3212 3213 3213 3213 3214 3214 3214 3214 3214 3213 3213 3213 3214 3214
3211 3211 3212 3212 3212 3212 3212 3213 3213 3212 3212 3212 3212 3212 3211 3211 3210 3210 3209 3208 3208 3207 3206 3206 3206 3205 3204 3203 3202 3201 3201 3201 3201 3201 3202 3203 3203 3203 3203 3203 3203 3203 3204 3204 3204 3204 3205 3205 3206 3206 3206 3206 3207 3207 3207 3208 3209 3209 3209 3209 3209 3210 3210 3210 3211 3211 3212 3212 3212 3212 3212 3212 3212 3212 3212 3212 3212 3212 3213 3212 3212 3212 3212 3212 3213
3210 3211 3211 3211 3211 3212 3212 3212 3212 3212 3212 3212 3211 3211 3210 3210 3209 3209 3208 3207 3207 3206 3206 3205 3205 3204 3203 3202 3201 3201 3200 3200 3201 3201 3202 3202 3202 3203 3203 3203 3203 3203 3203 3203 3204 3204 3204 3205 3205 3205 3206 3206 3206 3206 3206 3207 3208 3209 3209 3209 3208 3209 3209 3209 3209 3210 3210 3210 3210 3210 3211 3210 3210 3211 3211 3211 3211 3212 3211 3211 3210 3211 3211 3211 3211
3210 3210 3211 3211 3211 3211 3211 3211 3211 3211 3211 3211 3210 3210 3210 3209 3209 3208 3207 3207 3206 3206 3205 3205 3204 3203 3203 3202 3202 3201 3200 3200 3200 3201 3202 3201 3202 3202 3202 3202 3202 3202 3202 3203 3203 3203 3204 3204 3204 3204 3205 3206 3206 3206 3206 3206 3207 3207 3208 3208 3208 3208 3207 3207 3208 3209 3209 3209 3209 3209 3209 3208 3208 3209 3209 3210 3210 3211 3210 3209 3209 3210 3211 3210 3210
3209 3209 3210 3210 3210 3211 3211 3210 3210 3210 3210 3210 3210 3209 3209 3208 3208 3207 3207 3206 3206 3205 3205 3205 3204 3203 3203 3202 3202 3201 3201 3200 3200 3201 3202 3201 3201 3201 3202 3202 3201 3201 3201 3202 3203 3203 3203 3203 3203 3204 3204 3204 3205 3205 3205 3205 3206 3206 3206 3207 3207 3207 3206 3206 3207 3207 3207 3207 3207 3207 3207 3206 3206 3207 3208 3208 3208 3208 3208 3208 3209 3209 3209 3209 3210
3207 3208 3208 3209 3210 3210 3210 3210 3210 3210 3209 3209 3209 3208 3208 3208 3208 3207 3207 3206 3206 3206 3205 3204 3204 3203 3203 3202 3202 3202 3201 3201 3201 3201 3201 3201 3201 3201 3201 3201 3201 3201 3201 3201 3202 3202 3203 3203 3203 3203 3203 3203 3203 3203 3204 3204 3205 3205 3205 3205 3206 3206 3205 3205 3206 3206 3205 3205 3206 3206 3206 3205 3204 3205 3206 3206 3206 3206 3206 3207 3207 3207 3208 3208 3209
3206 3207 3208 3208 3209 3209 3209 3209 3209 3209 3209 3208 3208 3208 3208 3208 3208 3208 3207 3207 3206 3206 3205 3204 3204 3203 3203 3202 3202 3202 3201 3201 3201 3201 3201 3201 3201 3201 3201 3201 3201 3201 3201 3201 3201 3201 3202 3203 3203 3203 3203 3203 3203 3203 3203 3203 3203 3203 3204 3204 3204 3204 3204 3204 3205 3205 3204 3204 3204 3204 3204 3204 3203 3204 3204 3204 3205 3204 3204 3205 3205 3206 3206 3207 3207
3205 3206 3207 3208 3208 3209 3209 3209 3208 3208 3208 3208 3208 3208 3208 3208 3208 3208 3208 3207 3207 3206 3205 3205 3204 3204 3203 3203 3202 3201 3201 3201 3201 3201 3201 3201 3201 3201 3201 3201 3201 3200 3200 3200 3200 3200 3201 3202 3202 3202 3202 3202 3202 3202 3202 3202 3202 3202 3202 3202 3202 3203 3203 3203 3203 3203 3203 3203 3203 3203 3203 3202 3202 3203 3203 3202 3203 3203 3202 3203 3203 3204 3204 3204 3204
3204 3205 3206 3207 3207 3208 3208 3207 3208 3208 3208 3208 3208 3208 3209 3209 3209 3208 3208 3208 3207 3207 3206 3205 3204 3204 3203 3203 3202 3201 3201 3201 3201 3201 3201 3201 3201 3201 3201 3200 3200 3200 3200 3200 3200 3200 3200 3201 3201 3201 3201 3201 3201 3201 3201 3201 3201 3201 3200 3200 3201 3201 3201 3201 3201 3202 3202 3202 3201 3201 3201 3201 3201 3201 3201 3201 3201 3201 3201 3201 3202 3202 3202 3202 3202
3203 3204 3205 3206 3206 3206 3206 3207 3207 3207 3207 3208 3208 3209 3209 3209 3209 3209 3208 3208 3207 3207 3206 3205 3205 3204 3203 3203 3202 3202 3201 3201 3200 3200 3200 3201 3201 3201 3200 3200 3199 3199 3199 3199 3199 3200 3200 3200 3199 3199 3200 3200 3199 3200 3200 3200 3200 3200 3199 3199 3199 3199 3199 3199 3199 3200 3200 3200 3200 3199 3199 3199 3199 3199 3199 3199 3199 3199 3199 3199 3199 3199 3200 3200 3201
3202 3203 3204 3205 3205 3205 3205 3206 3206 3206 3207 3207 3208 3209 3209 3209 3209 3209 3208 3208 3208 3207 3206 3206 3205 3204 3203 3202 3202 3202 3201 3201 3200 3200 3200 3200 3200 3200 3200 3200 3199 3199 3199 3199 3200 3200 3200 3199 3199 3198 3198 3198 3198 3198 3198 3198 3198 3198 3198 3198 3198 3198 3198 3198 3198 3198 3198 3198 3197 3197 3197 3197 3197 3196 3196 3196 3196 3196 3196 3196 3197 3197 3197 3197 3198
3201 3203 3203 3204 3204 3204 3204 3205 3206 3206 3207 3207 3208 3209 3209 3209 3209 3209 3208 3208 3208 3207 3206 3206 3205 3204 3203 3202 3201 3201 3201 3201 3200 3200 3200 3200 3200 3200 3200 3200 3199 3199 3199 3199 3199 3200 3200 3200 3199 3198 3197 3197 3197 3197 3197 3197 3197 3197 3197 3197 3197 3197 3197 3197 3196 3196 3196 3196 3195 3195 3195 3195 3195 3194 3194 3194 3194 3194 3194 3194 3194 3194 3194 3195 3195
3200 3201 3202 3202 3202 3203 3203 3204 3205 3206 3206 3207 3208 3208 3209 3209 3208 3208 3208 3208 3208 3207 3207 3206 3205 3204 3203 3202 3201 3201 3201 3200 3200 3200 3200 3200 3200 3199 3199 3199 3199 3199 3199 3199 3199 3199 3200 3200 3199 3198 3198 3197 3196 3196 3196 3196 3196 3196 3196 3196 3196 3196 3196 3196 3195 3195 3194 3194 3194 3193 3193 3193 3193 3192 3192 3192 3192 3192 3192 3192 3192 3192 3192 3192 3192
3199 3200 3201 3201 3201 3202 3203 3204 3204 3205 3206 3207 3207 3208 3208 3208 3208 3208 3208 3208 3207 3207 3206 3206 3205 3204 3203 3202 3202 3201 3201 3200 3200 3200 3200 3200 3200 3199 3199 3198 3198 3198 3199 3199 3199 3199 3199 3199 3199 3198 3198 3197 3196 3195 3195 3195 3195 3195 3195 3195 3194 3194 3194 3194 3194 3193 3193 3192 3192 3192 3191 3191 3190 3190 3190 3190 3190 3189 3189 3189 3189 3189 3189 3190 3190
3198 3198 3199 3199 3200 3201 3202 3203 3204 3205 3205 3206 3207 3207 3207 3208 3208 3208 3208 3208 3207 3207 3206 3206 3205 3204 3204 3203 3202 3201 3201 3200 3200 3200 3200 3199 3199 3198 3198 3198 3198 3198 3198 3198 3198 3198 3198 3198 3198 3198 3197 3197 3196 3195 3195 3195 3194 3194 3194 3194 3193 3193 3193 3192 3192 3192 3191 3191 3190 3190 3189 3188 3188 3188 3188 3187 3187 3187 3187 3187 3187 3187 3187 3187 3187
3196 3197 3198 3198 3199 3200 3201 3202 3203 3204 3205 3205 3206 3206 3207 3207 3207 3208 3208 3207 3207 3207 3206 3205 3205 3204 3204 3203 3202 3201 3201 3200 3199 3199 3199 3199 3198 3198 3197 3197 3197 3197 3197 3197 3198 3198 3198 3198 3198 3197 3197 3196 3195 3195 3194 3194 3194 3194 3193 3193 3192 3192 3191 3191 3190 3190 3189 3189 3188 3188 3187 3186 3186 3185 3185 3185 3185 3185 3185 3184 3184 3184 3184 3184 3184
3195 3196 3197 3198 3199 3200 3200 3202 3203 3203 3204 3204 3205 3205 3206 3206 3207 3207 3207 3207 3206 3206 3206 3205 3205 3204 3204 3203 3202 3202 3201 3200 3199 3199 3198 3198 3197 3197 3197 3196 3196 3197 3197 3197 3197 3197 3197 3197 3197 3197 3196 3195 3195 3194 3193 3193 3193 3193 3192 3192 3191 3191 3190 3189 3189 3188 3187 3187 3186 3185 3185 3184 3184 3183 3183 3182 3182 3182 3182 3182 3182 3182 3181 3181 3181
3193 3195 3195 3196 3197 3199 3200 3200 3201 3202 3203 3203 3204 3204 3205 3205 3206 3206 3206 3206 3205 3205 3205 3205 3204 3204 3203 3202 3202 3202 3201 3200 3199 3199 3198 3197 3197 3196 3196 3196 3196 3196 3196 3196 3196 3196 3196 3196 3196 3196 3195 3195 3194 3193 3193 3192 3192 3191 3191 3191 3190 3189 3188 3188 3187 3186 3185 3185 3184 3183 3182 3182 3181 3181 3180 3180 3179 3179 3179 3179 3179 3179 3178 3178 3178
3192 3193 3193 3194 3196 3197 3198 3199 3200 3201 3201 3202 3203 3204 3204 3204 3205 3205 3205 3205 3204 3204 3204 3204 3204 3203 3203 3202 3201 3201 3201 3200 3199 3199 3198 3197 3196 3196 3195 3195 3195 3195 3195 3195 3195 3195 3195 3194 3194 3194 3194 3194 3193 3192 3192 3191 3190 3190 3189 3189 3189 3188 3187 3186 3185 3184 3183 3183 3182 3181 3180 3179 3179 3178 3178 3178 3177 3177 3176 3176 3176 3175 3175 3175 3175
3190 3191 3192 3193 3194 3196 3197 3198 3199 3199 3200 3201 3202 3202 3203 3203 3204 3204 3203 3203 3203 3203 3203 3202 3202 3202 3202 3202 3201 3200 3200 3199 3198 3198 3197 3196 3196 3195 3195 3194 3194 3194 3194 3193 3193 3193 3193 3192 3192 3192 3192 3192 3192 3191 3190 3189 3189 3188 3188 3188 3187 3186 3185 3184 3184 3183 3182 3181 3180 3179 3178 3177 3176 3176 3175 3175 3175 3174 3174 3173 3173 3172 3172 3172 3172
3187 3189 3190 3191 3193 3194 3195 3196 3197 3198 3199 3200 3201 3201 3202 3202 3202 3202 3202 3202 3202 3202 3202 3201 3201 3201 3201 3201 3200 3199 3199 3198 3197 3196 3196 3195 3195 3194 3194 3193 3193 3192 3192 3192 3191 3191 3190 3190 3190 3190 3189 3189 3189 3189 3188 3188 3187 3187 3187 3187 3186 3185 3184 3183 3182 3181 3180 3179 3178 3177 3176 3175 3174 3173 3173 3172 3172 3171 3171 3170 3170 3169 3169 3169 3168
3185 3187 3188 3189 3191 3193 3194 3195 3196 3196 3197 3198 3199 3200 3201 3201 3201 3201 3201 3201 3201 3200 3200 3200 3200 3199 3199 3199 3199 3198 3197 3197 3196 3195 3194 3194 3193 3193 3192 3192 3192 3191 3191 3190 3190 3189 3189 3189 3188 3188 3187 3187 3187 3187 3186 3186 3185 3185 3185 3185 3185 3184 3183 3182 3181 3180 3179 3177 3176 3176 3174 3173 3172 3171 3171 3170 3169 3169 3168 3168 3167 3167 3166 3166 3165
3183 3185 3186 3188 3190 3191 3192 3193 3194 3195 3196 3197 3198 3199 3199 3200 3200 3200 3200 3200 3200 3199 3199 3199 3198 3198 3198 3197 3197 3196 3196 3195 3195 3194 3193 3193 3192 3192 3191 3191 3190 3189 3189 3188 3188 3188 3187 3187 3186 3186 3186 3185 3185 3185 3184 3184 3183 3183 3183 3182 3182 3181 3181 3180 3179 3177 3176 3175 3174 3173 3172 3171 3170 3169 3169 3168 3167 3166 3166 3165 3164 3164 3163 3163 3163
3181 3183 3185 3186 3188 3190 3191 3192 3193 3194 3195 3196 3197 3197 3198 3198 3199 3199 3199 3198 3198 3198 3198 3198 3197 3197 3196 3195 3195 3194 3194 3194 3193 3193 3192 3192 3191 3191 3191 3190 3189 3188 3187 3187 3187 3187 3186 3185 3185 3184 3184 3184 3184 3183 3183 3182 3181 3181 3180 3180 3179 3179 3178 3177 3176 3175 3174 3173 3172 3170 3169 3168 3168 3167 3166 3165 3164 3164 3163 3162 3161 3161 3160 3160 3160
3178 3181 3183 3185 3187 3188 3190 3191 3192 3193 3194 3195 3195 3196 3196 3197 3198 3198 3197 3197 3197 3197 3197 3196 3196 3195 3194 3194 3193 3192 3192 3192 3191 3191 3191 3190 3190 3189 3189 3188 3188 3187 3186 3186 3185 3185 3184 3184 3183 3182 3182 3181 3182 3181 3181 3180 3179 3179 3178 3177 3177 3176 3176 3175 3174 3174 3172 3171 3170 3168 3167 3166 3165 3164 3163 3162 3161 3160 3159 3159 3158 3157 3157 3156 3156
3176 3178 3181 3183 3185 3186 3188 3189 3190 3191 3192 3193 3194 3194 3195 3196 3196 3196 3196 3196 3196 3196 3195 3195 3194 3193 3192 3192 3191 3190 3190 3189 3189 3189 3189 3188 3188 3187 3187 3186 3186 3185 3185 3184 3184 3183 3183 3182 3181 3180 3180 3179 3179 3179 3178 3178 3177 3177 3176 3175 3175 3174 3174 3173 3173 3171 3170 3169 3167 3166 3164 3163 3162 3161 3160 3159 3158 3156 3155 3155 3154 3154 3153 3153 3153
3174 3176 3179 3181 3183 3185 3186 3188 3189 3190 3191 3192 3192 3193 3193 3194 3195 3195 3195 3195 3194 3194 3193 3193 3192 3191 3190 3189 3189 3188 3187 3186 3186 3186 3186 3186 3186 3185 3185 3184 3184 3183 3183 3182 3182 3182 3181 3180 3180 3179 3178 3177 3177 3177 3176 3176 3175 3174 3174 3174 3173 3173 3172 3171 3170 3169 3167 3167 3165 3164 3162 3160 3159 3158 3157 3157 3155 3154 3153 3152 3151 3150 3150 3150 3149
3172 3175 3177 3179 3181 3183 3184 3186 3187 3189 3189 3190 3191 3191 3192 3193 3193 3193 3193 3193 3193 3192 3191 3190 3189 3188 3188 3187 3186 3185 3184 3184 3184 3184 3183 3183 3182 3182 3182 3182 3181 3181 3180 3180 3180 3179 3179 3178 3178 3177 3176 3175 3175 3174 3174 3174 3173 3172 3172 3172 3171 3170 3169 3168 3167 3165 3164 3164 3163 3161 3160 3159 3157 3156 3155 3153 3152 3151 3150 3149 3148 3147 3147 3146 3146
3171 3173 3175 3177 3179 3181 3183 3184 3186 3187 3188 3188 3189 3190 3190 3191 3191 3191 3191 3191 3190 3190 3189 3188 3187 3186 3186 3185 3184 3183 3182 3181 3181 3181 3181 3180 3179 3179 3180 3179 3179 3179 3178 3178 3178 3177 3176 3176 3176 3175 3174 3173 3173 3172 3171 3171 3170 3170 3169 3169 3168 3168 3167 3166 3165 3163 3161 3160 3159 3158 3156 3156 3155 3154 3152 3150 3149 3148 3147 3146 3145 3144 3143 3143 3142
3170 3172 3173 3175 3177 3179 3181 3183 3184 3185 3186 3186 3187 3188 3188 3188 3188 3188 3188 3188 3187 3187 3186 3185 3184 3184 3183 3183 3182 3181 3180 3179 3179 3179 3178 3177 3177 3177 3177 3177 3176 3176 3176 3176 3175 3174 3174 3173 3173 3172 3171 3171 3170 3169 3168 3167 3167 3167 3166 3165 3165 3165 3164 3163 3162 3160 3158 3157 3156 3154 3153 3152 3151 3149 3148 3146 3146 3145 3143 3142 3141 3140 3140 3139 3139
3169 3170 3172 3174 3176 3178 3179 3181 3182 3183 3183 3184 3185 3185 3186 3186 3186 3186 3185 3185 3184 3184 3183 3181 3181 3180 3180 3180 3179 3178 3177 3177 3177 3176 3176 3175 3174 3174 3174 3174 3174 3173 3173 3173 3172 3171 3171 3170 3170 3169 3168 3167 3166 3166 3165 3164 3163 3163 3162 3161 3161 3161 3159 3158 3158 3157 3155 3153 3151 3150 3149 3148 3147 3145 3143 3142 3141 3140 3139 3138 3137 3137 3136 3135 3134
3167 3169 3171 3172 3174 3176 3177 3178 3179 3180 3181 3182 3182 3183 3183 3183 3183 3183 3183 3182 3182 3181 3180 3178 3177 3177 3177 3177 3176 3175 3174 3174 3173 3173 3173 3172 3171 3170 3171 3171 3171 3170 3170 3170 3169 3168 3167 3167 3166 3166 3165 3164 3163 3162 3162 3161 3160 3159 3157 3156 3156 3157 3155 3153 3153 3152 3150 3148 3147 3146 3145 3144 3143 3141 3139 3138 3137 3136 3135 3134 3134 3133 3132 3131 3130
3166 3168 3169 3171 3171 3173 3174 3175 3176 3177 3178 3179 3180 3180 3181 3181 3181 3180 3180 3180 3179 3178 3177 3176 3175 3174 3174 3174 3173 3172 3171 3171 3170 3170 3169 3169 3168 3167 3168 3168 3167 3167 3166 3166 3165 3164 3164 3163 3162 3162 3161 3160 3160 3159 3159 3158 3156 3155 3154 3152 3151 3152 3151 3149 3148 3146 3145 3144 3142 3142 3142 3140 3138 3136 3135 3134 3133 3132 3131 3130 3130 3128 3127 3126 3125
3164 3166 3167 3168 3169 3170 3171 3172 3173 3174 3175 3177 3177 3178 3178 3178 3178 3178 3177 3177 3176 3175 3174 3173 3173 3172 3171 3171 3170 3169 3168 3167 3167 3166 3166 3165 3164 3164 3164 3164 3164 3163 3162 3162 3161 3160 3160 3159 3159 3158 3157 3156 3156 3155 3154 3153 3151 3150 3150 3149 3147 3147 3146 3144 3142 3142 3142 3140 3137 3137 3138 3136 3132 3130 3130 3129 3129 3128 3126 3126 3125 3123 3122 3121 3120
3162 3163 3165 3165 3166 3167 3168 3169 3170 3171 3173 3174 3175 3175 3175 3175 3175 3175 3174 3174 3173 3172 3171 3171 3170 3169 3168 3167 3167 3166 3165 3164 3164 3164 3163 3162 3161 3161 3161 3160 3160 3159 3159 3158 3157 3157 3156 3156 3156 3155 3153 3153 3153 3152 3150 3149 3148 3147 3146 3145 3144 3142 3141 3139 3137 3137 3138 3136 3132 3132 3133 3132 3128 3125 3125 3125 3124 3122 3121 3120 3119 3118 3117 3116 3115
3159 3160 3161 3162 3163 3164 3165 3166 3167 3169 3170 3171 3171 3172 3172 3172 3172 3171 3171 3171 3170 3169 3168 3167 3166 3166 3165 3165 3164 3163 3162 3161 3161 3160 3160 3158 3157 3157 3157 3157 3156 3155 3155 3154 3153 3153 3153 3152 3152 3151 3150 3149 3149 3148 3146 3145 3144 3144 3142 3141 3140 3138 3137 3135 3134 3133 3133 3131 3127 3125 3127 3128 3125 3121 3120 3120 3118 3117 3116 3115 3114 3112 3111 3110 3110
3155 3157 3158 3159 3160 3161 3162 3163 3164 3166 3167 3167 3168 3168 3168 3168 3168 3168 3168 3167 3167 3166 3165 3164 3163 3162 3162 3161 3161 3160 3159 3158 3157 3156 3156 3155 3155 3154 3154 3153 3153 3152 3151 3150 3150 3149 3149 3148 3148 3147 3147 3145 3145 3144 3143 3141 3140 3140 3139 3138 3137 3135 3133 3131 3131 3130 3129 3126 3123 3120 3120 3121 3120 3116 3115 3115 3113 3112 3111 3110 3109 3108 3106 3105 3104
3151 3152 3153 3154 3156 3157 3159 3160 3161 3162 3163 3163 3164 3164 3164 3164 3164 3164 3164 3164 3164 3163 3162 3160 3160 3159 3158 3158 3157 3157 3156 3155 3154 3153 3153 3152 3152 3152 3151 3150 3149 3148 3147 3147 3146 3146 3145 3145 3144 3144 3143 3142 3141 3140 3139 3137 3136 3135 3135 3134 3133 3131 3129 3128 3127 3126 3125 3122 3119 3115 3114 3114 3114 3112 3111 3111 3109 3107 3107 3106 3105 3103 3101 3101 3100
3147 3148 3149 3150 3152 3153 3155 3157 3158 3158 3159 3160 3160 3160 3161 3161 3161 3161 3161 3161 3160 3159 3158 3157 3157 3156 3155 3154 3154 3154 3153 3152 3151 3151 3150 3150 3150 3149 3148 3147 3146 3145 3144 3143 3143 3142 3142 3141 3140 3140 3140 3139 3137 3137 3136 3134 3133 3131 3130 3129 3128 3127 3125 3123 3123 3122 3120 3118 3115 3111 3108 3108 3108 3107 3107 3106 3104 3102 3102 3102 3100 3099 3098 3097 3096
3142 3143 3144 3145 3147 3149 3151 3153 3153 3154 3155 3156 3156 3157 3157 3158 3157 3157 3157 3157 3156 3155 3154 3153 3153 3153 3152 3151 3150 3150 3150 3149 3148 3148 3147 3147 3147 3146 3145 3144 3143 3142 3141 3140 3140 3139 3138 3137 3137 3137 3137 3136 3135 3134 3133 3131 3129 3128 3126 3125 3124 3122 3120 3119 3118 3117 3115 3114 3112 3108 3104 3103 3103 3102 3102 3101 3099 3098 3098 3098 3096 3095 3094 3093 3091
3136 3138 3139 3141 3143 3145 3147 3149 3149 3151 3152 3153 3153 3154 3154 3154 3154 3154 3153 3153 3152 3151 3151 3150 3149 3148 3148 3147 3147 3147 3147 3146 3145 3144 3144 3143 3143 3143 3142 3141 3140 3139 3138 3137 3136 3135 3135 3135 3135 3134 3134 3133 3132 3131 3129 3127 3126 3124 3122 3121 3119 3118 3116 3114 3112 3111 3109 3108 3107 3104 3100 3098 3098 3097 3096 3096 3095 3094 3094 3094 3092 3091 3090 3088 3086
3131 3134 3136 3138 3140 3142 3143 3144 3146 3147 3148 3149 3150 3151 3151 3151 3150 3150 3150 3149 3149 3148 3147 3146 3145 3144 3144 3143 3143 3143 3143 3142 3141 3141 3140 3140 3140 3140 3139 3138 3137 3136 3135 3133 3132 3132 3132 3132 3132 3131 3130 3129 3128 3127 3126 3124 3122 3120 3118 3116 3115 3113 3111 3109 3107 3105 3103 3103 3103 3100 3096 3095 3094 3093 3091 3090 3090 3091 3090 3089 3088 3087 3085 3083 3081
3127 3130 3132 3134 3136 3138 3139 3141 3142 3143 3144 3145 3146 3147 3147 3147 3146 3146 3146 3145 3145 3145 3143 3142 3141 3140 3140 3140 3139 3139 3139 3138 3138 3137 3137 3137 3137 3136 3135 3135 3134 3133 3132 3130 3130 3129 3129 3129 3129 3128 3127 3126 3124 3123 3121 3120 3118 3116 3114 3112 3110 3108 3106 3104 3102 3100 3098 3098 3098 3095 3092 3091 3091 3090 3088 3085 3084 3086 3087 3085 3084 3083 3081 3079 3077